Time,TemperatureF,DewpointF,PressureIn,WindDirection,WindDirectionDegrees,WindSpeedMPH,WindSpeedGustMPH,Humidity,HourlyPrecipIn,Conditions,Clouds,dailyrainin,SoftwareType,DateUTC
2013-05-24 00:03:00,55.0,43.9,30.04,West,276,2.0,5.0,66,0.00,,,0.00,meteohub,2013-05-24 07:03:00,
2013-05-24 00:08:00,55.0,43.9,30.04,West,276,0.0,4.0,66,0.00,,,0.00,meteohub,2013-05-24 07:08:00,
2013-05-24 00:13:00,54.9,43.7,30.04,West,276,1.0,4.0,66,0.00,,,0.00,meteohub,2013-05-24 07:13:00,
2013-05-24 00:18:00,54.9,43.7,30.04,West,274,2.0,3.0,66,0.00,,,0.00,meteohub,2013-05-24 07:18:00,
2013-05-24 00:23:00,54.9,43.7,30.04,West,275,1.0,5.0,66,0.00,,,0.00,meteohub,2013-05-24 07:23:00,
2013-05-24 00:28:00,54.9,43.7,30.04,West,275,0.0,5.0,66,0.00,,,0.00,meteohub,2013-05-24 07:28:00,
2013-05-24 00:33:00,54.7,43.5,30.04,West,275,0.0,5.0,66,0.00,,,0.00,meteohub,2013-05-24 07:33:00,
2013-05-24 00:38:00,54.7,43.5,30.04,West,275,3.0,4.0,66,0.00,,,0.00,meteohub,2013-05-24 07:38:00,
2013-05-24 00:43:00,54.9,43.3,30.04,West,275,3.0,5.0,65,0.00,,,0.00,meteohub,2013-05-24 07:43:00,
2013-05-24 00:48:00,54.9,43.7,30.04,West,275,4.0,5.0,66,0.00,,,0.00,meteohub,2013-05-24 07:48:00,
2013-05-24 00:53:00,54.7,43.5,30.04,West,275,2.0,5.0,66,0.00,,,0.00,meteohub,2013-05-24 07:53:00,
2013-05-24 00:58:00,54.7,43.5,30.04,WSW,245,4.0,4.0,66,0.00,,,0.00,meteohub,2013-05-24 07:58:00,
2013-05-24 01:03:00,54.7,43.5,30.04,WSW,245,0.0,7.0,66,0.00,,,0.00,meteohub,2013-05-24 08:03:00,
2013-05-24 01:08:00,54.3,44.1,30.04,WSW,245,3.0,7.0,68,0.00,,,0.00,meteohub,2013-05-24 08:08:00,
2013-05-24 01:13:00,54.3,44.4,30.03,WSW,245,3.0,7.0,69,0.00,,,0.00,meteohub,2013-05-24 08:13:00,
2013-05-24 01:18:00,54.3,45.9,30.03,WSW,245,0.0,5.0,73,0.00,,,0.00,meteohub,2013-05-24 08:18:00,
2013-05-24 01:23:00,54.1,46.4,30.03,WSW,245,0.0,5.0,75,0.00,,,0.00,meteohub,2013-05-24 08:23:00,
2013-05-24 01:28:00,54.0,46.6,30.03,WSW,245,0.0,4.0,76,0.00,,,0.00,meteohub,2013-05-24 08:28:00,
2013-05-24 01:33:00,53.8,46.4,30.03,WSW,245,0.0,2.0,76,0.00,,,0.00,meteohub,2013-05-24 08:33:00,
2013-05-24 01:39:00,53.8,46.8,30.03,WSW,245,0.0,2.0,77,0.00,,,0.00,meteohub,2013-05-24 08:39:00,
2013-05-24 01:44:00,53.8,46.8,30.03,WSW,245,0.0,2.0,77,0.00,,,0.00,meteohub,2013-05-24 08:44:00,
2013-05-24 01:49:00,53.4,46.8,30.03,WSW,246,0.0,1.0,78,0.00,,,0.00,meteohub,2013-05-24 08:49:00,
2013-05-24 01:54:00,53.4,47.1,30.04,WSW,245,0.0,0.0,79,0.00,,,0.00,meteohub,2013-05-24 08:54:00,
2013-05-24 01:59:00,53.2,46.9,30.04,WSW,245,0.0,2.0,79,0.00,,,0.00,meteohub,2013-05-24 08:59:00,
2013-05-24 02:04:00,53.1,47.1,30.03,WSW,245,1.0,2.0,80,0.00,,,0.00,meteohub,2013-05-24 09:04:00,
2013-05-24 02:09:00,52.9,46.9,30.04,WSW,246,0.0,2.0,80,0.00,,,0.00,meteohub,2013-05-24 09:09:00,
2013-05-24 02:14:00,52.7,47.1,30.04,WSW,245,0.0,2.0,81,0.00,,,0.00,meteohub,2013-05-24 09:14:00,
2013-05-24 02:19:00,52.5,46.9,30.04,WSW,246,0.0,2.0,81,0.00,,,0.00,meteohub,2013-05-24 09:19:00,
2013-05-24 02:24:00,52.5,46.9,30.03,WSW,245,0.0,1.0,81,0.00,,,0.00,meteohub,2013-05-24 09:24:00,
2013-05-24 02:29:00,52.5,47.1,30.03,WSW,245,0.0,0.0,82,0.00,,,0.00,meteohub,2013-05-24 09:29:00,
2013-05-24 02:34:00,52.5,47.1,30.03,WSW,246,0.0,2.0,82,0.00,,,0.00,meteohub,2013-05-24 09:34:00,
2013-05-24 02:39:00,52.3,46.9,30.03,SW,218,1.0,2.0,82,0.00,,,0.00,meteohub,2013-05-24 09:39:00,
2013-05-24 02:44:00,52.2,47.1,30.03,SW,214,2.0,4.0,83,0.00,,,0.00,meteohub,2013-05-24 09:44:00,
2013-05-24 02:49:00,52.0,46.9,30.03,South,173,2.0,4.0,83,0.00,,,0.00,meteohub,2013-05-24 09:49:00,
2013-05-24 02:54:00,52.0,46.9,30.03,South,173,2.0,4.0,83,0.00,,,0.00,meteohub,2013-05-24 09:54:00,
2013-05-24 02:59:00,51.8,46.8,30.02,South,173,1.0,4.0,83,0.00,,,0.00,meteohub,2013-05-24 09:59:00,
2013-05-24 03:04:00,51.6,46.6,30.02,SSE,153,2.0,4.0,83,0.00,,,0.00,meteohub,2013-05-24 10:04:00,
2013-05-24 03:09:00,51.6,46.6,30.02,SE,144,3.0,5.0,83,0.00,,,0.00,meteohub,2013-05-24 10:09:00,
2013-05-24 03:14:00,51.4,46.4,30.02,SE,144,1.0,6.0,83,0.00,,,0.00,meteohub,2013-05-24 10:14:00,
2013-05-24 03:19:00,51.4,46.4,30.02,SE,144,2.0,6.0,83,0.00,,,0.00,meteohub,2013-05-24 10:19:00,
2013-05-24 03:24:00,51.4,46.4,30.02,SE,144,0.0,6.0,83,0.00,,,0.00,meteohub,2013-05-24 10:24:00,
2013-05-24 03:29:00,51.4,46.4,30.02,SE,143,1.0,5.0,83,0.00,,,0.00,meteohub,2013-05-24 10:29:00,
2013-05-24 03:34:00,51.4,46.4,30.02,SE,143,0.0,4.0,83,0.00,,,0.00,meteohub,2013-05-24 10:34:00,
2013-05-24 03:39:00,51.4,46.4,30.02,SE,144,1.0,4.0,83,0.00,,,0.00,meteohub,2013-05-24 10:39:00,
2013-05-24 03:44:00,51.3,46.2,30.02,SE,143,1.0,3.0,83,0.00,,,0.00,meteohub,2013-05-24 10:44:00,
2013-05-24 03:49:00,51.3,46.2,30.02,SE,143,0.0,3.0,83,0.00,,,0.00,meteohub,2013-05-24 10:49:00,
2013-05-24 03:54:00,51.3,46.2,30.02,SE,144,0.0,2.0,83,0.00,,,0.00,meteohub,2013-05-24 10:54:00,
2013-05-24 03:59:00,51.3,46.2,30.02,SE,145,1.0,2.0,83,0.00,,,0.00,meteohub,2013-05-24 10:59:00,
2013-05-24 04:04:00,51.1,46.4,30.02,SE,145,4.0,4.0,84,0.00,,,0.00,meteohub,2013-05-24 11:04:00,
2013-05-24 04:09:00,51.1,46.4,30.02,SE,143,0.0,4.0,84,0.00,,,0.00,meteohub,2013-05-24 11:09:00,
2013-05-24 04:14:00,51.1,46.4,30.02,SE,143,3.0,4.0,84,0.00,,,0.00,meteohub,2013-05-24 11:14:00,
2013-05-24 04:19:00,51.1,46.4,30.02,SSE,149,1.0,5.0,84,0.00,,,0.00,meteohub,2013-05-24 11:19:00,
2013-05-24 04:24:00,51.3,46.6,30.02,SE,145,3.0,5.0,84,0.00,,,0.00,meteohub,2013-05-24 11:24:00,
2013-05-24 04:29:00,51.3,46.9,30.02,SE,146,2.0,5.0,85,0.00,,,0.00,meteohub,2013-05-24 11:29:00,
2013-05-24 04:34:00,51.3,46.9,30.02,SSE,149,1.0,5.0,85,0.00,,,0.00,meteohub,2013-05-24 11:34:00,
2013-05-24 04:40:00,51.3,46.9,30.02,South,178,4.0,5.0,85,0.00,,,0.00,meteohub,2013-05-24 11:40:00,
2013-05-24 04:45:00,51.4,47.5,30.02,South,180,2.0,5.0,86,0.00,,,0.00,meteohub,2013-05-24 11:45:00,
2013-05-24 04:50:00,51.6,47.3,30.02,South,180,1.0,6.0,85,0.00,,,0.00,meteohub,2013-05-24 11:50:00,
2013-05-24 04:55:00,51.4,47.1,30.02,South,179,0.0,6.0,85,0.00,,,0.00,meteohub,2013-05-24 11:55:00,
2013-05-24 05:00:00,51.4,47.5,30.02,South,179,0.0,6.0,86,0.00,,,0.00,meteohub,2013-05-24 12:00:00,
2013-05-24 05:05:00,51.4,47.1,30.02,South,180,0.0,3.0,85,0.00,,,0.00,meteohub,2013-05-24 12:05:00,
2013-05-24 05:10:00,51.4,47.1,30.02,South,179,0.0,3.0,85,0.00,,,0.00,meteohub,2013-05-24 12:10:00,
2013-05-24 05:15:00,51.4,47.1,30.02,South,179,1.0,3.0,85,0.00,,,0.00,meteohub,2013-05-24 12:15:00,
2013-05-24 05:20:00,51.4,47.1,30.03,South,178,0.0,3.0,85,0.00,,,0.00,meteohub,2013-05-24 12:20:00,
2013-05-24 05:25:00,51.4,47.1,30.03,South,180,0.0,2.0,85,0.00,,,0.00,meteohub,2013-05-24 12:25:00,
2013-05-24 05:30:00,51.3,46.9,30.03,South,180,0.0,1.0,85,0.00,,,0.00,meteohub,2013-05-24 12:30:00,
2013-05-24 05:35:00,51.1,46.8,30.03,South,180,1.0,2.0,85,0.00,,,0.00,meteohub,2013-05-24 12:35:00,
2013-05-24 05:40:00,51.1,47.1,30.03,South,179,0.0,2.0,86,0.00,,,0.00,meteohub,2013-05-24 12:40:00,
2013-05-24 05:45:00,50.9,46.9,30.03,South,179,2.0,3.0,86,0.00,,,0.00,meteohub,2013-05-24 12:45:00,
2013-05-24 05:50:00,50.9,46.9,30.03,South,180,0.0,3.0,86,0.00,,,0.00,meteohub,2013-05-24 12:50:00,
2013-05-24 05:55:00,50.7,46.8,30.03,South,179,1.0,3.0,86,0.00,,,0.00,meteohub,2013-05-24 12:55:00,
2013-05-24 06:00:00,50.7,46.8,30.03,South,181,1.0,4.0,86,0.00,,,0.00,meteohub,2013-05-24 13:00:00,
2013-05-24 06:05:00,50.5,46.6,30.03,South,177,2.0,4.0,86,0.00,,,0.00,meteohub,2013-05-24 13:05:00,
2013-05-24 06:10:00,50.5,46.8,30.03,SSE,165,2.0,6.0,87,0.00,,,0.00,meteohub,2013-05-24 13:10:00,
2013-05-24 06:15:00,50.5,46.8,30.03,SSE,160,3.0,6.0,87,0.00,,,0.00,meteohub,2013-05-24 13:15:00,
2013-05-24 06:20:00,50.7,46.9,30.04,SSE,168,0.0,6.0,87,0.00,,,0.00,meteohub,2013-05-24 13:20:00,
2013-05-24 06:25:00,50.5,46.8,30.04,SSE,152,4.0,6.0,87,0.00,,,0.00,meteohub,2013-05-24 13:25:00,
2013-05-24 06:30:00,50.7,46.9,30.04,SSE,161,5.0,6.0,87,0.00,,,0.00,meteohub,2013-05-24 13:30:00,
2013-05-24 06:35:00,50.7,46.9,30.04,SSE,157,3.0,6.0,87,0.00,,,0.00,meteohub,2013-05-24 13:35:00,
2013-05-24 06:40:00,50.7,46.9,30.04,South,171,2.0,7.0,87,0.00,,,0.00,meteohub,2013-05-24 13:40:00,
2013-05-24 06:45:00,50.9,47.1,30.04,SSE,166,4.0,7.0,87,0.00,,,0.00,meteohub,2013-05-24 13:45:00,
2013-05-24 06:50:00,51.1,47.3,30.04,SSE,150,3.0,6.0,87,0.00,,,0.00,meteohub,2013-05-24 13:50:00,
2013-05-24 06:55:00,51.3,47.3,30.04,SSE,153,3.0,7.0,86,0.00,,,0.00,meteohub,2013-05-24 13:55:00,
2013-05-24 07:00:00,51.4,47.5,30.04,SSE,154,4.0,8.0,86,0.00,,,0.00,meteohub,2013-05-24 14:00:00,
2013-05-24 07:05:00,51.4,47.5,30.04,South,175,4.0,8.0,86,0.00,,,0.00,meteohub,2013-05-24 14:05:00,
2013-05-24 07:10:00,51.6,47.3,30.04,SSE,158,3.0,8.0,85,0.00,,,0.00,meteohub,2013-05-24 14:10:00,
2013-05-24 07:15:00,51.6,47.3,30.04,SSE,153,5.0,8.0,85,0.00,,,0.00,meteohub,2013-05-24 14:15:00,
2013-05-24 07:20:00,52.0,47.7,30.04,SSE,162,4.0,8.0,85,0.00,,,0.00,meteohub,2013-05-24 14:20:00,
2013-05-24 07:26:00,52.2,47.5,30.04,South,172,3.0,8.0,84,0.00,,,0.00,meteohub,2013-05-24 14:26:00,
2013-05-24 07:31:00,52.3,47.7,30.04,SSE,156,6.0,8.0,84,0.00,,,0.00,meteohub,2013-05-24 14:31:00,
2013-05-24 07:36:00,52.3,47.7,30.04,SSE,166,4.0,8.0,84,0.00,,,0.00,meteohub,2013-05-24 14:36:00,
2013-05-24 07:41:00,52.5,47.5,30.05,SSE,157,2.0,8.0,83,0.00,,,0.00,meteohub,2013-05-24 14:41:00,
2013-05-24 07:46:00,52.9,47.8,30.05,SSE,147,3.0,7.0,83,0.00,,,0.00,meteohub,2013-05-24 14:46:00,
2013-05-24 07:51:00,53.1,47.7,30.05,SSE,152,0.0,7.0,82,0.00,,,0.00,meteohub,2013-05-24 14:51:00,
2013-05-24 07:56:00,53.2,47.8,30.05,South,171,3.0,7.0,82,0.00,,,0.00,meteohub,2013-05-24 14:56:00,
2013-05-24 08:01:00,53.4,48.0,30.05,South,188,1.0,6.0,82,0.00,,,0.00,meteohub,2013-05-24 15:01:00,
2013-05-24 08:06:00,53.6,47.8,30.05,South,184,4.0,6.0,81,0.00,,,0.00,meteohub,2013-05-24 15:06:00,
2013-05-24 08:11:00,53.8,48.0,30.05,South,174,3.0,8.0,81,0.00,,,0.00,meteohub,2013-05-24 15:11:00,
2013-05-24 08:16:00,54.0,48.0,30.05,SE,125,5.0,8.0,80,0.00,,,0.00,meteohub,2013-05-24 15:16:00,
2013-05-24 08:21:00,54.1,48.0,30.05,SSE,166,6.0,8.0,80,0.00,,,0.00,meteohub,2013-05-24 15:21:00,
2013-05-24 08:26:00,54.1,47.8,30.05,SE,146,3.0,9.0,79,0.00,,,0.00,meteohub,2013-05-24 15:26:00,
2013-05-24 08:31:00,54.5,48.2,30.05,SE,143,5.0,9.0,79,0.00,,,0.00,meteohub,2013-05-24 15:31:00,
2013-05-24 08:36:00,54.3,47.3,30.05,SE,131,9.0,9.0,77,0.00,,,0.00,meteohub,2013-05-24 15:36:00,
2013-05-24 08:41:00,54.7,47.7,30.05,South,179,2.0,9.0,77,0.00,,,0.00,meteohub,2013-05-24 15:41:00,
2013-05-24 08:46:00,54.9,47.5,30.05,SSE,161,6.0,9.0,76,0.00,,,0.00,meteohub,2013-05-24 15:46:00,
2013-05-24 08:51:00,55.0,47.3,30.05,SSE,166,5.0,9.0,75,0.00,,,0.00,meteohub,2013-05-24 15:51:00,
2013-05-24 08:56:00,55.0,47.3,30.05,SSE,168,7.0,9.0,75,0.00,,,0.00,meteohub,2013-05-24 15:56:00,
2013-05-24 09:01:00,55.4,48.0,30.05,SSW,203,4.0,9.0,76,0.00,,,0.00,meteohub,2013-05-24 16:01:00,
2013-05-24 09:06:00,55.9,47.8,30.05,South,176,6.0,9.0,74,0.00,,,0.00,meteohub,2013-05-24 16:06:00,
2013-05-24 09:11:00,55.9,47.5,30.05,SSW,201,5.0,8.0,73,0.00,,,0.00,meteohub,2013-05-24 16:11:00,
2013-05-24 09:16:00,56.5,48.4,30.05,SE,138,4.0,10.0,74,0.00,,,0.00,meteohub,2013-05-24 16:16:00,
2013-05-24 09:21:00,56.5,47.5,30.05,SSW,194,6.0,10.0,72,0.00,,,0.00,meteohub,2013-05-24 16:21:00,
2013-05-24 09:26:00,56.3,47.5,30.05,SSW,204,8.0,10.0,72,0.00,,,0.00,meteohub,2013-05-24 16:26:00,
2013-05-24 09:32:00,56.3,47.5,30.05,SW,220,7.0,12.0,72,0.00,,,0.00,meteohub,2013-05-24 16:32:00,
2013-05-24 09:37:00,56.1,46.8,30.05,South,179,6.0,12.0,71,0.00,,,0.00,meteohub,2013-05-24 16:37:00,
2013-05-24 09:42:00,55.9,46.8,30.05,South,178,8.0,12.0,71,0.00,,,0.00,meteohub,2013-05-24 16:42:00,
2013-05-24 09:47:00,56.1,46.8,30.06,SSW,208,8.0,12.0,71,0.00,,,0.00,meteohub,2013-05-24 16:47:00,
2013-05-24 09:52:00,56.1,46.8,30.06,South,189,3.0,12.0,71,0.00,,,0.00,meteohub,2013-05-24 16:52:00,
2013-05-24 09:57:00,56.5,47.1,30.05,SSW,204,6.0,10.0,71,0.00,,,0.00,meteohub,2013-05-24 16:57:00,
2013-05-24 10:02:00,56.7,47.7,30.05,SSW,199,8.0,10.0,72,0.00,,,0.00,meteohub,2013-05-24 17:02:00,
2013-05-24 10:07:00,57.0,47.7,30.05,South,185,11.0,11.0,71,0.00,,,0.00,meteohub,2013-05-24 17:07:00,
2013-05-24 10:12:00,56.7,47.3,30.05,SSW,208,9.0,11.0,71,0.00,,,0.00,meteohub,2013-05-24 17:12:00,
2013-05-24 10:17:00,56.7,47.7,30.04,South,189,7.0,13.0,72,0.00,,,0.00,meteohub,2013-05-24 17:17:00,
2013-05-24 10:22:00,56.5,47.5,30.04,South,180,5.0,13.0,72,0.00,,,0.00,meteohub,2013-05-24 17:22:00,
2013-05-24 10:27:00,56.8,47.5,30.05,SSW,197,6.0,13.0,71,0.00,,,0.00,meteohub,2013-05-24 17:27:00,
2013-05-24 10:32:00,57.0,47.7,30.05,SSW,211,12.0,14.0,71,0.00,,,0.00,meteohub,2013-05-24 17:32:00,
2013-05-24 10:37:00,57.2,48.2,30.05,SSW,197,4.0,14.0,72,0.00,,,0.00,meteohub,2013-05-24 17:37:00,
2013-05-24 10:42:00,57.6,48.6,30.05,SW,222,7.0,14.0,72,0.00,,,0.00,meteohub,2013-05-24 17:42:00,
2013-05-24 10:47:00,57.4,47.7,30.05,SW,232,8.0,13.0,70,0.00,,,0.00,meteohub,2013-05-24 17:47:00,
2013-05-24 10:52:00,57.0,47.3,30.05,SSW,212,10.0,13.0,70,0.00,,,0.00,meteohub,2013-05-24 17:52:00,
2013-05-24 10:57:00,57.0,46.9,30.05,SSW,208,7.0,13.0,69,0.00,,,0.00,meteohub,2013-05-24 17:57:00,
2013-05-24 11:02:00,57.6,47.8,30.05,SSW,194,10.0,13.0,70,0.00,,,0.00,meteohub,2013-05-24 18:02:00,
2013-05-24 11:07:00,57.0,47.3,30.05,SW,226,11.0,16.0,70,0.00,,,0.00,meteohub,2013-05-24 18:07:00,
2013-05-24 11:12:00,57.0,47.3,30.05,SW,233,9.0,16.0,70,0.00,,,0.00,meteohub,2013-05-24 18:12:00,
2013-05-24 11:17:00,57.4,47.3,30.05,WSW,239,11.0,16.0,69,0.00,,,0.00,meteohub,2013-05-24 18:17:00,
2013-05-24 11:22:00,57.4,46.9,30.05,SW,223,6.0,16.0,68,0.00,,,0.00,meteohub,2013-05-24 18:22:00,
2013-05-24 11:27:00,57.4,46.9,30.05,WSW,237,11.0,16.0,68,0.00,,,0.00,meteohub,2013-05-24 18:27:00,
2013-05-24 11:32:00,57.4,47.3,30.05,WSW,237,8.0,16.0,69,0.00,,,0.00,meteohub,2013-05-24 18:32:00,
2013-05-24 11:37:00,57.9,46.9,30.05,SSW,197,10.0,16.0,67,0.00,,,0.00,meteohub,2013-05-24 18:37:00,
2013-05-24 11:42:00,57.7,46.0,30.05,WSW,249,16.0,16.0,65,0.00,,,0.00,meteohub,2013-05-24 18:42:00,
2013-05-24 11:47:00,57.7,46.4,30.05,SSW,212,8.0,17.0,66,0.00,,,0.00,meteohub,2013-05-24 18:47:00,
2013-05-24 11:52:00,58.5,45.9,30.05,SSW,211,7.0,17.0,63,0.00,,,0.00,meteohub,2013-05-24 18:52:00,
2013-05-24 11:57:00,58.3,45.7,30.05,SSW,201,8.0,17.0,63,0.00,,,0.00,meteohub,2013-05-24 18:57:00,
2013-05-24 12:02:00,59.2,45.7,30.05,SSW,206,10.0,16.0,61,0.00,,,0.00,meteohub,2013-05-24 19:02:00,
2013-05-24 12:07:00,58.6,44.8,30.05,SW,220,8.0,16.0,60,0.00,,,0.00,meteohub,2013-05-24 19:07:00,
2013-05-24 12:12:00,58.6,46.0,30.05,SSW,197,7.0,14.0,63,0.00,,,0.00,meteohub,2013-05-24 19:12:00,
2013-05-24 12:17:00,58.5,45.1,30.05,SSW,205,9.0,15.0,61,0.00,,,0.00,meteohub,2013-05-24 19:17:00,
2013-05-24 12:23:00,58.6,43.5,30.04,SSW,195,7.0,15.0,57,0.00,,,0.00,meteohub,2013-05-24 19:23:00,
2013-05-24 12:28:00,59.4,44.6,30.04,SSW,211,11.0,15.0,58,0.00,,,0.00,meteohub,2013-05-24 19:28:00,
2013-05-24 12:33:00,60.3,44.4,30.04,SW,228,11.0,15.0,56,0.00,,,0.00,meteohub,2013-05-24 19:33:00,
2013-05-24 12:38:00,59.4,45.0,30.04,SW,225,10.0,15.0,59,0.00,,,0.00,meteohub,2013-05-24 19:38:00,
2013-05-24 12:43:00,59.2,44.4,30.04,SSW,193,5.0,15.0,58,0.00,,,0.00,meteohub,2013-05-24 19:43:00,
2013-05-24 12:48:00,59.5,45.7,30.04,SSW,201,11.0,15.0,60,0.00,,,0.00,meteohub,2013-05-24 19:48:00,
2013-05-24 12:53:00,59.7,45.3,30.04,SSW,202,9.0,14.0,59,0.00,,,0.00,meteohub,2013-05-24 19:53:00,
2013-05-24 12:58:00,59.5,45.7,30.04,South,189,6.0,14.0,60,0.00,,,0.00,meteohub,2013-05-24 19:58:00,
2013-05-24 13:03:00,59.2,45.3,30.04,South,170,8.0,16.0,60,0.00,,,0.00,meteohub,2013-05-24 20:03:00,
2013-05-24 13:08:00,59.5,46.0,30.04,South,180,7.0,16.0,61,0.00,,,0.00,meteohub,2013-05-24 20:08:00,
2013-05-24 13:13:00,59.9,43.7,30.04,SSW,195,7.0,17.0,55,0.00,,,0.00,meteohub,2013-05-24 20:13:00,
2013-05-24 13:18:00,59.9,40.6,30.04,SW,214,14.0,17.0,49,0.00,,,0.00,meteohub,2013-05-24 20:18:00,
2013-05-24 13:23:00,61.0,42.8,30.04,SW,214,10.0,17.0,51,0.00,,,0.00,meteohub,2013-05-24 20:23:00,
2013-05-24 13:28:00,60.4,43.2,30.04,SSW,205,14.0,17.0,53,0.00,,,0.00,meteohub,2013-05-24 20:28:00,
2013-05-24 13:33:00,60.4,44.6,30.04,SSW,192,9.0,17.0,56,0.00,,,0.00,meteohub,2013-05-24 20:33:00,
2013-05-24 13:38:00,60.1,44.4,30.04,South,171,8.0,17.0,56,0.00,,,0.00,meteohub,2013-05-24 20:38:00,
2013-05-24 13:43:00,60.3,44.1,30.04,SSW,204,13.0,17.0,55,0.00,,,0.00,meteohub,2013-05-24 20:43:00,
2013-05-24 13:48:00,59.4,44.6,30.04,SSW,198,16.0,17.0,58,0.00,,,0.00,meteohub,2013-05-24 20:48:00,
2013-05-24 13:53:00,59.5,44.8,30.04,SSW,208,14.0,18.0,58,0.00,,,0.00,meteohub,2013-05-24 20:53:00,
2013-05-24 13:58:00,59.7,45.0,30.03,SSW,204,11.0,18.0,58,0.00,,,0.00,meteohub,2013-05-24 20:58:00,
2013-05-24 14:03:00,60.1,45.7,30.03,South,189,10.0,19.0,59,0.00,,,0.00,meteohub,2013-05-24 21:03:00,
2013-05-24 14:08:00,61.2,45.9,30.03,SSW,196,17.0,19.0,57,0.00,,,0.00,meteohub,2013-05-24 21:08:00,
2013-05-24 14:13:00,60.3,46.4,30.03,SSW,211,13.0,19.0,60,0.00,,,0.00,meteohub,2013-05-24 21:13:00,
2013-05-24 14:18:00,60.3,46.4,30.03,South,172,8.0,19.0,60,0.00,,,0.00,meteohub,2013-05-24 21:18:00,
2013-05-24 14:23:00,60.3,46.8,30.03,SSW,208,7.0,19.0,61,0.00,,,0.00,meteohub,2013-05-24 21:23:00,
2013-05-24 14:28:00,60.4,47.3,30.03,South,174,15.0,18.0,62,0.00,,,0.00,meteohub,2013-05-24 21:28:00,
2013-05-24 14:33:00,60.3,46.4,30.03,SSW,197,12.0,18.0,60,0.00,,,0.00,meteohub,2013-05-24 21:33:00,
2013-05-24 14:38:00,60.6,46.2,30.03,SSE,158,8.0,20.0,59,0.00,,,0.00,meteohub,2013-05-24 21:38:00,
2013-05-24 14:44:00,60.8,45.9,30.02,South,189,14.0,20.0,58,0.00,,,0.00,meteohub,2013-05-24 21:44:00,
2013-05-24 14:49:00,60.8,45.9,30.02,SSE,159,9.0,20.0,58,0.00,,,0.00,meteohub,2013-05-24 21:49:00,
2013-05-24 14:54:00,61.3,46.0,30.02,South,190,14.0,19.0,57,0.00,,,0.00,meteohub,2013-05-24 21:54:00,
2013-05-24 14:59:00,61.2,46.8,30.02,South,190,12.0,19.0,59,0.00,,,0.00,meteohub,2013-05-24 21:59:00,
2013-05-24 15:04:00,61.0,46.9,30.02,SSW,195,12.0,18.0,60,0.00,,,0.00,meteohub,2013-05-24 22:04:00,
2013-05-24 15:09:00,61.0,48.4,30.02,South,184,14.0,19.0,63,0.00,,,0.00,meteohub,2013-05-24 22:09:00,
2013-05-24 15:14:00,60.4,47.3,30.02,SSW,193,13.0,19.0,62,0.00,,,0.00,meteohub,2013-05-24 22:14:00,
2013-05-24 15:19:00,60.8,48.2,30.02,SSW,193,9.0,17.0,63,0.00,,,0.00,meteohub,2013-05-24 22:19:00,
2013-05-24 15:24:00,61.2,47.1,30.01,South,172,9.0,17.0,60,0.00,,,0.00,meteohub,2013-05-24 22:24:00,
2013-05-24 15:29:00,62.1,48.4,30.01,SSW,195,8.0,17.0,61,0.00,,,0.00,meteohub,2013-05-24 22:29:00,
2013-05-24 15:34:00,62.6,47.1,30.01,SSE,149,8.0,16.0,57,0.00,,,0.00,meteohub,2013-05-24 22:34:00,
2013-05-24 15:39:00,62.8,48.2,30.01,SSW,199,7.0,16.0,59,0.00,,,0.00,meteohub,2013-05-24 22:39:00,
2013-05-24 15:44:00,63.3,47.3,30.01,SSW,200,12.0,15.0,56,0.00,,,0.00,meteohub,2013-05-24 22:44:00,
2013-05-24 15:49:00,63.7,48.2,30.01,South,179,12.0,15.0,57,0.00,,,0.00,meteohub,2013-05-24 22:49:00,
2013-05-24 15:54:00,64.2,47.3,30.01,SSW,194,6.0,15.0,54,0.00,,,0.00,meteohub,2013-05-24 22:54:00,
2013-05-24 15:59:00,64.4,47.8,30.01,South,179,8.0,15.0,55,0.00,,,0.00,meteohub,2013-05-24 22:59:00,
2013-05-24 16:04:00,64.9,46.4,30.01,South,189,7.0,14.0,51,0.00,,,0.00,meteohub,2013-05-24 23:04:00,
2013-05-24 16:09:00,65.5,47.5,30.00,SSE,159,6.0,14.0,52,0.00,,,0.00,meteohub,2013-05-24 23:09:00,
2013-05-24 16:14:00,66.0,45.7,30.00,WSW,241,13.0,13.0,48,0.00,,,0.00,meteohub,2013-05-24 23:14:00,
2013-05-24 16:19:00,66.6,45.1,30.00,WSW,239,9.0,11.0,46,0.00,,,0.00,meteohub,2013-05-24 23:19:00,
2013-05-24 16:24:00,66.6,43.3,30.00,SW,231,11.0,13.0,43,0.00,,,0.00,meteohub,2013-05-24 23:24:00,
2013-05-24 16:29:00,66.7,43.5,30.00,WSW,246,13.0,14.0,43,0.00,,,0.00,meteohub,2013-05-24 23:29:00,
2013-05-24 16:34:00,66.9,41.9,30.00,SW,228,7.0,14.0,40,0.00,,,0.00,meteohub,2013-05-24 23:34:00,
2013-05-24 16:39:00,67.1,45.7,30.00,West,261,6.0,15.0,46,0.00,,,0.00,meteohub,2013-05-24 23:39:00,
2013-05-24 16:44:00,67.3,45.1,29.99,West,268,7.0,15.0,45,0.00,,,0.00,meteohub,2013-05-24 23:44:00,
2013-05-24 16:49:00,67.1,44.4,29.99,WSW,239,4.0,13.0,44,0.00,,,0.00,meteohub,2013-05-24 23:49:00,
2013-05-24 16:54:00,67.5,45.3,29.99,WSW,246,5.0,11.0,45,0.00,,,0.00,meteohub,2013-05-24 23:54:00,
2013-05-24 16:59:00,67.3,45.9,29.99,WSW,239,7.0,11.0,46,0.00,,,0.00,meteohub,2013-05-24 23:59:00,
2013-05-24 17:04:00,67.5,45.3,29.99,WSW,247,8.0,11.0,45,0.00,,,0.00,meteohub,2013-05-25 00:04:00,
2013-05-24 17:10:00,66.7,45.3,29.99,WSW,250,9.0,11.0,46,0.00,,,0.00,meteohub,2013-05-25 00:10:00,
2013-05-24 17:15:00,66.7,45.3,29.99,WSW,249,7.0,12.0,46,0.00,,,0.00,meteohub,2013-05-25 00:15:00,
2013-05-24 17:20:00,66.9,45.0,29.99,West,280,11.0,12.0,45,0.00,,,0.00,meteohub,2013-05-25 00:20:00,
2013-05-24 17:25:00,66.4,44.4,29.99,WNW,282,9.0,14.0,45,0.00,,,0.00,meteohub,2013-05-25 00:25:00,
2013-05-24 17:30:00,66.6,44.1,29.99,WNW,285,13.0,15.0,44,0.00,,,0.00,meteohub,2013-05-25 00:30:00,
2013-05-24 17:35:00,66.4,43.2,29.99,WSW,249,8.0,15.0,43,0.00,,,0.00,meteohub,2013-05-25 00:35:00,
2013-05-24 17:40:00,66.2,43.7,29.99,WNW,285,12.0,16.0,44,0.00,,,0.00,meteohub,2013-05-25 00:40:00,
2013-05-24 17:45:00,66.0,43.5,29.99,West,261,11.0,16.0,44,0.00,,,0.00,meteohub,2013-05-25 00:45:00,
2013-05-24 17:50:00,65.5,42.4,29.99,WNW,288,13.0,16.0,43,0.00,,,0.00,meteohub,2013-05-25 00:50:00,
2013-05-24 17:55:00,65.5,42.4,29.99,WNW,287,12.0,16.0,43,0.00,,,0.00,meteohub,2013-05-25 00:55:00,
2013-05-24 18:00:00,64.8,42.3,29.99,WNW,285,12.0,16.0,44,0.00,,,0.00,meteohub,2013-05-25 01:00:00,
2013-05-24 18:05:00,64.6,42.8,29.99,West,261,15.0,16.0,45,0.00,,,0.00,meteohub,2013-05-25 01:05:00,
2013-05-24 18:10:00,64.0,42.3,29.99,West,276,11.0,16.0,45,0.00,,,0.00,meteohub,2013-05-25 01:10:00,
2013-05-24 18:15:00,63.9,42.6,29.99,West,279,11.0,18.0,46,0.00,,,0.00,meteohub,2013-05-25 01:15:00,
2013-05-24 18:20:00,63.9,42.6,29.99,WNW,285,13.0,18.0,46,0.00,,,0.00,meteohub,2013-05-25 01:20:00,
2013-05-24 18:25:00,63.3,42.3,29.99,WNW,301,10.0,16.0,46,0.00,,,0.00,meteohub,2013-05-25 01:25:00,
2013-05-24 18:30:00,63.1,42.1,29.99,West,262,9.0,17.0,46,0.00,,,0.00,meteohub,2013-05-25 01:30:00,
2013-05-24 18:35:00,62.4,41.9,29.99,WNW,286,14.0,17.0,47,0.00,,,0.00,meteohub,2013-05-25 01:35:00,
2013-05-24 18:40:00,61.9,41.4,29.99,West,281,13.0,21.0,47,0.00,,,0.00,meteohub,2013-05-25 01:40:00,
2013-05-24 18:45:00,61.7,42.3,29.98,WNW,293,10.0,21.0,49,0.00,,,0.00,meteohub,2013-05-25 01:45:00,
2013-05-24 18:50:00,61.3,42.6,29.99,WNW,286,16.0,21.0,50,0.00,,,0.00,meteohub,2013-05-25 01:50:00,
2013-05-24 18:55:00,61.2,42.4,29.99,WNW,284,11.0,19.0,50,0.00,,,0.00,meteohub,2013-05-25 01:55:00,
2013-05-24 19:00:00,61.0,41.2,29.99,West,279,16.0,19.0,48,0.00,,,0.00,meteohub,2013-05-25 02:00:00,
2013-05-24 19:05:00,61.0,41.7,29.99,WNW,287,12.0,20.0,49,0.00,,,0.00,meteohub,2013-05-25 02:05:00,
2013-05-24 19:10:00,60.6,41.9,29.99,West,265,11.0,20.0,50,0.00,,,0.00,meteohub,2013-05-25 02:10:00,
2013-05-24 19:15:00,60.4,41.2,29.99,WNW,288,12.0,17.0,49,0.00,,,0.00,meteohub,2013-05-25 02:15:00,
2013-05-24 19:20:00,60.3,41.0,29.99,West,274,16.0,17.0,49,0.00,,,0.00,meteohub,2013-05-25 02:20:00,
2013-05-24 19:25:00,60.3,41.5,29.99,WNW,290,18.0,18.0,50,0.00,,,0.00,meteohub,2013-05-25 02:25:00,
2013-05-24 19:30:00,59.7,41.0,29.99,West,264,11.0,19.0,50,0.00,,,0.00,meteohub,2013-05-25 02:30:00,
2013-05-24 19:35:00,59.7,41.0,29.99,West,279,10.0,20.0,50,0.00,,,0.00,meteohub,2013-05-25 02:35:00,
2013-05-24 19:40:00,59.7,41.5,29.99,West,269,8.0,20.0,51,0.00,,,0.00,meteohub,2013-05-25 02:40:00,
2013-05-24 19:45:00,59.5,41.9,29.99,WNW,293,9.0,20.0,52,0.00,,,0.00,meteohub,2013-05-25 02:45:00,
2013-05-24 19:51:00,59.2,42.1,29.99,West,273,11.0,15.0,53,0.00,,,0.00,meteohub,2013-05-25 02:51:00,
2013-05-24 19:56:00,58.8,41.7,29.99,WSW,247,11.0,15.0,53,0.00,,,0.00,meteohub,2013-05-25 02:56:00,
2013-05-24 20:01:00,58.6,43.9,29.99,SW,216,0.0,15.0,58,0.00,,,0.00,meteohub,2013-05-25 03:01:00,
2013-05-24 20:06:00,58.6,45.7,29.99,South,181,1.0,15.0,62,0.00,,,0.00,meteohub,2013-05-25 03:06:00,
2013-05-24 20:11:00,58.5,45.5,29.99,South,181,3.0,13.0,62,0.00,,,0.00,meteohub,2013-05-25 03:11:00,
2013-05-24 20:16:00,58.1,46.4,29.99,South,181,3.0,5.0,65,0.00,,,0.00,meteohub,2013-05-25 03:16:00,
2013-05-24 20:21:00,57.7,46.4,29.99,SSW,193,5.0,6.0,66,0.00,,,0.00,meteohub,2013-05-25 03:21:00,
2013-05-24 20:26:00,57.4,46.6,29.99,SSW,204,1.0,7.0,67,0.00,,,0.00,meteohub,2013-05-25 03:26:00,
2013-05-24 20:31:00,57.2,45.5,30.00,WSW,239,3.0,7.0,65,0.00,,,0.00,meteohub,2013-05-25 03:31:00,
2013-05-24 20:36:00,57.0,42.8,29.99,WSW,246,7.0,8.0,59,0.00,,,0.00,meteohub,2013-05-25 03:36:00,
2013-05-24 20:41:00,57.0,43.3,30.00,West,273,7.0,9.0,60,0.00,,,0.00,meteohub,2013-05-25 03:41:00,
2013-05-24 20:46:00,57.0,45.0,30.00,WSW,237,1.0,9.0,64,0.00,,,0.00,meteohub,2013-05-25 03:46:00,
2013-05-24 20:51:00,56.8,43.2,30.00,WSW,238,0.0,9.0,60,0.00,,,0.00,meteohub,2013-05-25 03:51:00,
2013-05-24 20:56:00,56.8,43.2,30.00,WSW,239,0.0,8.0,60,0.00,,,0.00,meteohub,2013-05-25 03:56:00,
2013-05-24 21:01:00,56.8,43.5,30.00,WSW,238,0.0,6.0,61,0.00,,,0.00,meteohub,2013-05-25 04:01:00,
2013-05-24 21:02:00,56.7,43.7,30.00,WSW,238,0.0,6.0,62,0.00,,,0.00,meteohub,2013-05-25 04:02:00,
2013-05-24 21:03:00,56.7,43.3,30.00,WSW,238,0.0,6.0,61,0.00,,,0.00,meteohub,2013-05-25 04:03:00,
2013-05-24 21:04:00,56.7,43.3,30.00,WSW,239,0.0,6.0,61,0.00,,,0.00,meteohub,2013-05-25 04:04:00,
2013-05-24 21:09:00,56.7,44.6,30.00,SE,144,6.0,6.0,64,0.00,,,0.00,meteohub,2013-05-25 04:09:00,
2013-05-24 21:14:00,56.5,46.0,30.00,SSE,157,2.0,6.0,68,0.00,,,0.00,meteohub,2013-05-25 04:14:00,
2013-05-24 21:20:00,55.9,45.9,30.00,SE,139,1.0,6.0,69,0.00,,,0.00,meteohub,2013-05-25 04:20:00,
2013-05-24 21:25:00,55.6,45.5,30.00,SE,127,6.0,8.0,69,0.00,,,0.00,meteohub,2013-05-25 04:25:00,
2013-05-24 21:30:00,55.2,45.1,30.00,SE,129,4.0,10.0,69,0.00,,,0.00,meteohub,2013-05-25 04:30:00,
2013-05-24 21:35:00,54.9,45.3,30.00,SSE,149,1.0,10.0,70,0.00,,,0.00,meteohub,2013-05-25 04:35:00,
2013-05-24 21:40:00,54.5,45.3,30.00,SE,131,5.0,10.0,71,0.00,,,0.00,meteohub,2013-05-25 04:40:00,
2013-05-24 21:45:00,54.3,45.1,30.01,SSE,147,5.0,11.0,71,0.00,,,0.00,meteohub,2013-05-25 04:45:00,
2013-05-24 21:50:00,54.1,45.3,30.01,SSE,166,4.0,11.0,72,0.00,,,0.00,meteohub,2013-05-25 04:50:00,
2013-05-24 21:55:00,54.0,45.1,30.01,SSE,162,2.0,11.0,72,0.00,,,0.00,meteohub,2013-05-25 04:55:00,
2013-05-24 22:00:00,53.8,45.3,30.01,SSE,162,4.0,11.0,73,0.00,,,0.00,meteohub,2013-05-25 05:00:00,
2013-05-24 22:05:00,53.8,45.3,30.01,SSE,158,2.0,11.0,73,0.00,,,0.00,meteohub,2013-05-25 05:05:00,
2013-05-24 22:10:00,53.4,45.0,30.01,SSE,156,5.0,10.0,73,0.00,,,0.00,meteohub,2013-05-25 05:10:00,
2013-05-24 22:15:00,53.2,44.8,30.02,SSE,149,4.0,10.0,73,0.00,,,0.00,meteohub,2013-05-25 05:15:00,
2013-05-24 22:20:00,53.2,45.1,30.02,SE,139,5.0,10.0,74,0.00,,,0.00,meteohub,2013-05-25 05:20:00,
2013-05-24 22:25:00,53.2,45.1,30.02,SSE,148,9.0,10.0,74,0.00,,,0.00,meteohub,2013-05-25 05:25:00,
2013-05-24 22:30:00,53.2,45.5,30.02,SSE,168,8.0,10.0,75,0.00,,,0.00,meteohub,2013-05-25 05:30:00,
2013-05-24 22:35:00,53.1,45.3,30.02,SE,141,1.0,10.0,75,0.00,,,0.00,meteohub,2013-05-25 05:35:00,
2013-05-24 22:40:00,53.1,45.7,30.02,SSE,147,1.0,10.0,76,0.00,,,0.00,meteohub,2013-05-25 05:40:00,
2013-05-24 22:45:00,53.2,45.9,30.02,SSE,147,4.0,9.0,76,0.00,,,0.00,meteohub,2013-05-25 05:45:00,
2013-05-24 22:50:00,53.1,45.7,30.02,SSE,153,5.0,7.0,76,0.00,,,0.00,meteohub,2013-05-25 05:50:00,
2013-05-24 22:55:00,52.9,45.9,30.03,SE,145,5.0,10.0,77,0.00,,,0.00,meteohub,2013-05-25 05:55:00,
2013-05-24 23:00:00,52.9,45.9,30.02,SE,144,2.0,10.0,77,0.00,,,0.00,meteohub,2013-05-25 06:00:00,
2013-05-24 23:05:00,52.9,45.9,30.03,SSE,164,7.0,10.0,77,0.00,,,0.00,meteohub,2013-05-25 06:05:00,
2013-05-24 23:10:00,52.7,46.0,30.02,SSE,159,8.0,10.0,78,0.00,,,0.00,meteohub,2013-05-25 06:10:00,
2013-05-24 23:15:00,52.5,45.9,30.02,SE,137,4.0,10.0,78,0.00,,,0.00,meteohub,2013-05-25 06:15:00,
2013-05-24 23:20:00,52.5,45.9,30.02,SE,138,3.0,11.0,78,0.00,,,0.00,meteohub,2013-05-25 06:20:00,
2013-05-24 23:25:00,52.3,45.7,30.02,SSE,151,4.0,11.0,78,0.00,,,0.00,meteohub,2013-05-25 06:25:00,
2013-05-24 23:30:00,52.3,45.7,30.02,SSE,157,8.0,10.0,78,0.00,,,0.00,meteohub,2013-05-25 06:30:00,
2013-05-24 23:35:00,52.2,45.9,30.02,SE,138,5.0,12.0,79,0.00,,,0.00,meteohub,2013-05-25 06:35:00,
2013-05-24 23:40:00,52.0,45.7,30.02,SSE,152,3.0,12.0,79,0.00,,,0.00,meteohub,2013-05-25 06:40:00,
2013-05-24 23:45:00,51.8,45.5,30.02,SE,138,4.0,9.0,79,0.00,,,0.00,meteohub,2013-05-25 06:45:00,
2013-05-24 23:50:00,51.6,45.7,30.02,SSE,157,9.0,9.0,80,0.00,,,0.00,meteohub,2013-05-25 06:50:00,
2013-05-24 23:55:00,51.4,45.9,30.02,SSE,156,5.0,10.0,81,0.00,,,0.00,meteohub,2013-05-25 06:55:00,